Lapse_Rate
4.7 5.1 5.2 5.2 5.3 5.4 5.6 5.8 6.0 6.0 6.1 6.1 5.8 5.8 6.0 6.5 6.6 6.6 6.6 6.7 6.8 6.6 6.4 6.3 6.7 6.7 6.8 6.3 5.8 5.4 5.4 5.6 5.8 7.1 7.1 7.1 7.2 7.0 7.2 7.4 6.8 6.5 6.6 5.3
4.8 5.1 5.2 5.3 5.3 5.5 5.7 6.1 6.5 6.4 6.4 6.4 6.0 6.7 6.9 6.8 6.6 6.8 7.0 7.0 7.1 7.1 7.0 6.7 7.0 6.9 6.9 6.4 5.9 5.1 5.0 5.6 6.0 7.0 7.4 7.3 7.2 6.4 6.8 7.3 7.1 6.8 7.4 5.7
5.0 5.0 5.4 5.5 5.8 6.0 6.5 6.9 7.0 6.7 6.6 6.4 6.5 6.8 7.0 6.8 7.0 7.2 7.1 7.2 7.4 7.4 7.5 7.2 7.4 7.2 7.5 7.4 6.8 5.9 5.5 5.3 5.6 6.1 5.3 5.1 5.5 5.5 5.9 6.4 7.2 7.6 7.4 5.6
5.4 5.5 5.6 5.8 6.1 6.6 7.1 7.2 7.0 7.0 6.7 6.6 6.7 6.7 6.9 6.6 6.7 7.4 7.4 7.7 7.6 7.5 7.7 7.9 8.0 7.8 8.1 7.8 7.6 6.9 5.8 5.7 5.2 5.3 5.2 5.2 5.0 5.1 5.4 5.7 5.9 6.0 6.3 6.6
5.5 5.8 5.9 6.3 6.5 7.0 7.3 7.3 7.2 7.2 7.0 6.8 6.9 6.8 6.6 6.7 6.9 6.9 7.6 7.5 7.7 8.0 8.1 8.1 8.1 8.3 8.0 8.3 7.9 7.3 6.9 6.2 5.7 5.6 5.8 5.9 5.2 5.4 5.4 5.3 5.3 5.3 5.5 5.4
5.8 6.0 6.3 6.5 6.8 7.2 7.1 7.3 7.3 7.3 7.3 6.9 6.8 6.7 6.7 6.8 6.6 7.4 7.4 7.5 7.8 8.1 8.4 8.4 8.4 8.6 8.6 8.6 8.0 7.9 7.4 6.6 6.0 5.8 5.6 5.9 6.2 4.9 5.0 4.6 5.1 5.6 5.3 5.2
6.0 6.3 6.5 6.5 6.9 7.0 6.9 6.9 6.9 7.0 7.4 7.0 6.9 6.9 6.9 7.0 7.0 7.1 7.9 8.2 8.1 8.4 8.4 8.5 8.7 8.9 9.0 8.9 8.7 8.4 7.6 7.2 6.6 6.6 6.2 6.3 4.1 4.5 4.7 4.7 4.4 4.3 4.4 4.4
6.2 6.4 6.4 6.7 6.8 6.7 6.6 6.7 6.7 6.8 7.2 7.2 7.2 7.0 6.9 7.2 7.2 7.4 7.5 8.1 8.1 8.3 8.3 8.5 8.7 8.8 8.8 8.8 8.6 8.3 8.2 7.8 7.5 7.3 6.9 5.1 4.7 4.4 4.2 4.1 4.0 4.2 4.1 4.1
6.2 6.3 6.4 6.5 6.6 6.4 6.3 6.3 6.4 6.7 7.0 7.2 7.1 7.1 7.0 7.0 7.2 7.5 7.6 8.1 8.1 8.2 8.3 8.4 8.4 8.9 8.5 8.7 8.4 8.5 8.4 8.3 8.0 7.8 8.0 7.3 5.3 5.2 4.9 4.7 3.7 4.1 4.1 4.3
6.5 6.1 6.1 5.4 6.0 6.0 6.0 6.0 6.3 6.7 7.0 7.3 7.1 7.1 7.0 7.0 7.0 7.2 7.6 8.0 8.1 8.1 8.2 8.2 8.3 8.5 8.4 8.5 8.3 8.5 8.4 8.3 8.0 8.1 8.1 6.3 6.3 6.2 5.7 4.7 4.5 4.5 4.4 4.2
6.2 6.1 5.5 5.5 5.6 5.7 5.6 5.9 6.2 6.6 7.0 7.3 7.2 7.0 7.0 6.9 7.0 7.1 7.4 7.8 7.9 8.1 8.2 8.3 8.2 8.1 8.1 8.1 8.2 8.2 8.0 8.1 7.9 7.6 7.7 7.3 6.7 6.5 5.6 5.6 5.1 5.1 4.7 4.4
6.3 5.6 5.7 5.6 5.7 5.9 5.7 6.0 6.4 6.7 7.0 7.2 7.2 7.2 7.0 7.1 7.2 7.0 7.3 7.6 7.8 7.9 8.1 8.3 8.3 8.3 8.2 8.1 8.3 8.1 7.7 7.9 7.8 7.8 7.1 6.9 6.9 6.7 6.5 6.1 5.8 5.4 5.3 4.9
6.1 5.6 5.7 6.0 5.8 6.0 6.2 6.5 6.7 6.9 7.0 7.3 7.3 7.3 7.2 7.1 7.0 7.0 7.2 7.5 7.8 8.0 8.1 8.2 8.3 8.3 8.3 8.2 8.2 8.0 7.9 7.7 7.9 7.7 7.2 7.2 6.9 6.8 6.7 6.5 6.3 6.3 6.1 5.9
6.0 5.9 5.9 5.9 6.1 6.2 6.5 6.7 7.0 7.1 7.1 7.1 7.2 7.3 7.1 6.9 6.9 7.0 7.1 7.4 7.8 8.1 8.2 8.2 8.2 8.2 8.3 8.4 8.5 8.3 8.0 7.9 7.6 7.4 7.3 7.2 7.1 6.8 6.7 6.7 6.7 6.5 6.5 6.6
5.6 5.7 5.8 6.0 6.2 6.6 6.9 6.9 7.3 7.3 7.2 7.1 7.2 7.2 7.1 6.9 6.9 7.0 7.1 7.4 7.6 7.9 8.0 8.1 8.1 8.2 8.3 8.5 8.4 8.1 7.8 7.6 7.4 7.2 7.3 7.3 7.3 7.2 7.0 6.9 6.7 6.7 6.7 6.5
5.6 5.9 5.8 6.1 6.6 7.0 6.9 6.7 7.3 7.2 7.3 7.1 7.1 7.2 7.1 7.0 7.0 7.1 7.1 7.3 7.4 7.6 7.7 8.0 8.1 8.1 8.2 8.2 7.9 7.7 7.5 7.3 7.2 7.2 7.1 7.0 7.1 7.1 7.1 7.0 7.0 6.9 6.8 6.8
5.7 5.6 5.9 6.3 6.7 6.9 6.8 6.9 7.3 7.6 7.4 7.2 7.2 7.2 7.2 7.2 7.2 7.2 7.1 7.2 7.3 7.4 7.7 7.9 8.0 7.8 7.8 7.8 7.6 7.4 7.2 7.0 7.0 7.0 7.0 6.9 6.9 7.0 7.0 7.0 7.0 7.0 7.0 7.0
5.8 6.0 6.4 6.8 6.9 6.8 6.9 7.5 7.6 7.6 7.5 7.4 7.4 7.4 7.3 7.3 7.3 7.2 7.2 7.1 7.1 7.3 7.5 7.6 7.6 7.5 7.5 7.4 7.1 7.0 6.9 6.9 6.8 6.8 6.8 6.8 6.9 7.0 6.9 6.9 6.8 6.9 7.0 6.9
5.7 6.2 6.8 6.9 6.8 6.7 7.0 7.3 7.6 7.6 7.5 7.4 7.4 7.5 7.4 7.2 7.3 7.2 7.0 6.8 6.9 7.0 7.1 7.2 7.3 7.1 7.1 6.7 6.7 6.7 6.7 6.7 6.7 6.7 6.8 6.9 6.8 6.8 6.7 6.7 6.7 6.7 6.8 6.9
6.0 6.5 6.8 6.6 6.5 6.5 6.9 7.3 7.6 7.7 7.5 7.6 7.6 7.5 7.4 7.2 7.2 6.9 6.7 6.8 6.9 6.7 6.8 6.8 6.8 6.5 6.4 6.4 6.5 6.6 6.7 6.7 6.7 6.8 6.8 6.8 6.7 6.7 6.6 6.5 6.5 6.6 6.6 6.7
6.4 6.7 6.6 6.2 6.2 6.5 6.9 7.2 7.5 7.5 7.5 7.5 7.5 7.4 7.3 7.2 7.0 6.9 6.9 6.8 6.7 6.7 6.6 6.5 6.3 5.9 6.1 6.2 6.4 6.6 6.7 6.8 6.8 6.8 6.8 6.7 6.6 6.6 6.5 6.5 6.5 6.5 6.6 6.7
6.6 6.6 6.3 6.3 6.5 6.9 7.2 7.4 7.5 7.6 7.5 7.5 7.4 7.3 7.2 7.1 6.9 6.8 6.8 6.8 6.7 6.6 6.4 6.4 5.8 5.5 5.7 6.1 6.3 6.4 6.6 6.6 6.7 6.7 6.6 6.6 6.5 6.6 6.6 6.5 6.5 6.6 6.6 6.5
6.5 6.4 6.2 6.4 6.7 7.1 7.3 7.3 7.4 7.4 7.5 7.4 7.4 7.2 7.0 6.8 6.8 6.8 6.8 6.8 6.6 6.4 6.2 5.7 5.2 5.4 5.7 5.9 6.1 6.3 6.4 6.5 6.6 6.6 6.6 6.6 6.5 6.5 6.5 6.5 6.5 6.5 6.4 6.4
6.3 6.1 6.2 6.5 6.3 6.5 6.7 7.0 7.2 7.3 7.4 7.2 7.1 7.0 6.9 6.8 6.8 6.9 6.7 6.5 6.5 6.2 5.7 5.1 5.2 5.4 5.8 6.0 6.2 6.3 6.3 6.4 6.5 6.6 6.5 6.5 6.5 6.5 6.5 6.4 6.4 6.4 6.3 6.3
6.3 6.1 6.1 5.9 6.1 6.3 6.6 6.8 7.0 7.1 7.1 7.1 7.0 6.8 6.7 6.8 6.8 6.8 6.6 6.5 5.8 5.1 4.8 5.2 5.4 5.7 5.9 6.1 6.2 6.3 6.4 6.5 6.5 6.6 6.7 6.7 6.6 6.6 6.5 6.5 6.4 6.4 6.3 6.3
6.1 5.7 5.7 5.7 5.9 6.1 6.3 6.5 6.6 6.7 6.7 6.7 6.6 6.5 6.5 6.6 6.5 6.5 6.1 5.9 5.0 5.2 5.6 5.8 5.9 5.9 6.0 6.1 6.2 6.3 6.4 6.5 6.6 6.7 6.7 6.7 6.7 6.7 6.7 6.6 6.6 6.5 6.5 6.5
5.6 5.2 5.6 5.7 5.9 6.1 6.4 6.6 6.7 6.8 6.8 6.7 6.5 6.6 6.3 6.2 6.0 5.6 5.6 5.5 5.7 5.9 6.0 6.1 6.2 6.3 6.2 6.3 6.3 6.4 6.5 6.5 6.6 6.6 6.7 6.7 6.7 6.8 6.8 6.8 6.8 6.8 6.8 6.7
Wind_Speed
18 21 21 24 25 28 9 4 2 7 12 5 3 5 6 6 8 12 6 7 5 8 12 9 6 6 6 10 12 6 6 5 5 8 4 9 17 15 17 8 7 8 3 3
17 20 21 22 22 23 4 3 3 3 6 5 6 6 4 4 10 10 6 6 6 7 8 6 9 8 7 13 10 6 7 3 7 5 4 7 6 9 10 16 3 9 10 5
17 19 21 20 19 20 2 2 3 2 3 2 5 7 5 8 9 6 10 11 7 7 8 5 8 7 6 14 9 13 7 3 4 6 5 4 6 14 12 7 4 9 8 11
18 17 19 19 17 14 1 3 2 2 5 3 6 3 3 10 8 5 8 5 4 6 5 11 2 9 14 7 7 6 7 4 6 10 11 10 10 6 10 8 5 7 7 9
17 15 18 19 16 7 2 3 2 1 5 6 6 2 2 8 10 5 9 4 13 7 5 8 14 11 6 6 3 11 5 3 8 8 7 9 4 16 8 12 8 6 6 9
17 16 15 17 14 5 1 1 1 2 5 4 4 3 7 10 12 9 9 11 14 14 13 9 11 12 12 13 11 5 3 2 4 4 7 8 4 15 11 12 15 7 6 6
16 18 14 15 14 2 1 1 1 3 6 5 7 10 9 12 12 14 17 10 10 2 12 13 10 6 6 5 4 8 2 2 2 4 5 3 6 10 16 17 13 13 9 11
14 16 15 15 14 3 2 2 2 2 5 6 11 5 8 10 8 7 5 4 6 7 6 4 4 2 3 3 4 4 6 3 2 3 2 6 3 6 5 5 8 12 12 13
16 15 16 14 14 10 3 2 3 2 3 2 2 6 5 4 5 5 2 5 4 4 2 2 2 2 2 1 1 2 3 1 4 1 3 1 5 10 5 5 3 9 11 12
19 19 18 13 13 11 4 2 7 2 3 4 3 4 4 1 2 3 4 7 3 4 2 2 2 1 2 2 4 4 3 3 2 3 1 4 10 10 5 5 4 9 9 8
19 21 18 15 15 10 4 1 10 3 2 5 5 3 2 3 3 3 5 3 1 2 2 2 2 2 3 1 2 3 4 4 3 2 1 2 15 1 2 4 4 8 8 10
24 22 19 15 13 12 8 2 5 8 3 4 3 6 8 5 1 2 1 3 1 3 2 0 2 2 1 0 2 2 2 3 2 4 3 3 7 9 7 7 6 8 10 11
24 21 20 16 12 11 8 2 3 2 3 5 3 3 3 2 2 1 3 1 1 1 1 1 1 1 2 2 2 2 2 2 1 4 2 4 7 6 8 8 8 8 9 9
22 24 22 17 11 9 10 3 5 2 2 3 0 1 2 1 1 1 1 1 1 0 1 1 2 1 4 2 3 2 3 3 1 2 1 4 2 7 6 9 9 9 9 9
21 23 19 16 7 6 8 3 6 5 2 2 2 1 2 3 2 5 4 2 2 1 2 2 2 2 2 2 3 3 4 2 2 2 2 3 2 5 5 7 8 8 9 11
24 22 18 10 7 11 3 2 3 5 3 1 2 2 3 5 3 6 7 4 4 2 3 3 2 3 1 2 2 3 3 2 2 2 4 3 7 4 3 5 7 7 7 6
23 19 15 14 6 8 2 1 3 11 5 2 2 2 2 4 1 2 2 4 3 2 2 3 2 3 3 2 2 4 5 3 2 3 4 1 2 4 6 4 6 7 5 4
20 19 13 6 10 10 3 5 9 8 3 2 0 1 2 6 2 1 1 2 2 4 3 2 2 2 2 3 3 3 5 2 2 7 4 3 5 5 4 4 4 7 6 7
17 11 2 5 4 3 3 11 15 13 4 2 2 2 2 5 3 1 1 0 3 1 2 2 1 3 4 3 3 4 4 3 5 7 4 4 3 6 5 7 8 8 9 9
9 3 2 2 2 7 8 2 2 3 3 4 3 2 2 3 3 1 1 1 2 2 2 3 3 3 0 2 3 4 5 3 3 5 6 7 7 7 7 7 6 7 8 9
3 3 2 1 6 1 3 3 4 3 3 3 3 2 4 2 2 2 2 1 2 2 3 2 2 2 3 4 4 3 4 5 3 4 4 5 6 6 8 7 8 8 9 9
2 3 2 2 5 3 5 3 3 5 3 4 4 4 3 3 3 2 2 1 2 3 2 3 2 2 3 5 5 3 5 5 5 5 6 6 6 7 7 7 7 8 9 8
3 3 4 4 5 9 6 7 3 3 5 5 6 4 3 2 3 1 2 3 4 2 3 3 2 3 5 5 5 6 5 5 5 5 5 5 6 6 6 6 7 8 8 7
4 4 7 4 5 4 4 4 5 4 6 7 6 3 3 2 2 2 3 3 2 3 3 2 2 5 7 6 5 6 8 7 6 6 6 6 5 6 5 5 6 7 8 8
4 5 5 4 3 3 4 5 4 5 5 6 3 1 2 3 3 3 3 3 4 4 3 2 4 5 6 7 7 8 8 7 5 6 5 6 5 5 5 5 6 6 7 7
4 6 4 5 3 6 5 5 4 5 6 4 1 2 2 5 3 4 6 3 4 3 3 4 5 4 6 7 8 7 7 7 6 6 5 5 5 5 6 6 4 6 6 7
4 3 6 4 2 4 5 5 5 6 3 2 2 4 4 2 3 3 4 3 3 5 5 5 5 5 5 7 6 7 7 7 7 7 6 5 4 4 4 6 7 7 7 5
Wind_Direction
13 6 0 4 5 357 10 334 32 352 341 43 40 26 327 286 313 339 331 308 340 338 332 311 308 355 353 357 335 339 352 302 297 224 341 240 203 206 207 209 185 226 310 121
8 7 1 3 6 6 332 26 318 12 337 36 18 349 320 296 324 341 353 318 342 328 326 307 322 336 1 356 358 5 353 359 324 296 202 61 29 6 355 245 246 199 201 130
3 6 359 360 9 2 40 359 346 357 36 76 4 348 336 342 326 299 341 307 302 323 317 310 296 323 341 341 342 19 353 281 259 283 339 341 328 346 1 300 233 215 217 124
356 3 357 357 11 4 358 12 49 20 322 355 335 310 293 327 347 320 318 301 293 327 297 319 305 329 333 342 22 20 11 277 310 297 294 276 274 18 46 19 5 12 40 99
347 357 357 351 7 9 62 5 336 223 287 285 302 325 315 314 326 301 304 287 315 302 271 272 296 310 327 308 318 335 349 301 330 303 310 267 160 20 33 44 12 59 71 67
343 347 353 344 357 37 3 138 173 246 280 282 291 340 321 306 314 295 258 293 303 284 283 282 267 277 280 270 290 304 299 308 322 296 337 305 154 1 82 77 38 3 39 9
340 338 341 340 339 327 211 201 257 254 283 274 293 301 302 304 311 294 303 284 278 314 303 288 266 255 253 248 253 219 263 275 257 288 312 235 78 41 69 75 40 26 21 7
328 329 333 333 328 329 168 157 201 241 274 281 290 296 312 308 313 317 322 15 325 308 289 296 297 181 182 113 110 162 233 293 294 290 27 103 116 23 347 1 53 16 1 0
325 321 322 321 322 321 134 203 190 208 284 260 297 299 299 312 332 330 331 315 317 313 274 273 284 306 347 261 151 65 81 294 262 182 259 214 37 344 318 294 135 12 1 2
320 321 308 315 316 313 150 196 192 180 247 258 199 291 300 271 292 284 295 340 330 342 320 276 296 306 333 304 345 346 343 348 337 292 42 106 352 319 306 216 40 355 3 1
311 311 313 317 310 295 174 175 192 231 247 272 200 230 258 238 223 303 339 291 109 329 3 325 16 302 43 49 34 3 342 336 15 279 175 146 353 86 50 354 346 350 354 5
315 313 309 311 297 292 157 197 194 202 233 289 215 241 272 233 335 292 264 328 295 355 294 158 269 285 332 301 282 55 222 359 25 357 79 70 43 59 36 9 358 2 353 354
317 316 310 307 285 293 179 168 158 190 264 272 249 247 162 132 216 244 281 202 16 120 337 325 331 275 315 271 96 126 115 15 88 193 106 94 59 43 22 7 355 349 350 348
320 321 317 307 296 293 164 163 164 136 277 273 134 109 101 63 354 173 243 309 124 110 328 348 29 45 5 68 62 54 6 330 21 98 50 153 199 34 2 349 353 353 349 350
318 320 316 321 308 280 146 134 191 177 221 277 291 120 80 27 108 78 63 111 109 83 104 61 69 65 93 74 93 58 358 7 331 68 32 318 312 351 348 341 345 341 340 341
321 319 322 348 310 149 126 192 196 173 134 221 276 85 50 25 92 90 74 70 63 69 77 77 73 2 80 90 77 37 8 337 278 9 331 275 291 294 338 325 326 318 337 332
331 330 328 311 284 158 161 241 127 151 145 230 243 163 61 350 357 99 87 51 68 62 89 66 74 43 47 64 76 358 350 347 80 347 310 273 8 325 323 308 305 316 318 303
332 333 334 7 101 119 73 2 102 125 107 28 354 63 129 9 8 98 73 92 74 35 98 91 74 71 65 73 21 343 360 17 20 2 341 279 299 302 319 329 326 338 338 335
339 337 12 62 40 44 92 83 68 52 38 79 52 17 17 351 14 353 157 61 85 120 79 71 72 48 52 27 345 360 351 335 320 327 320 327 324 325 346 342 347 344 343 343
343 15 48 62 24 315 150 36 49 37 40 33 61 337 337 335 342 8 333 54 103 90 56 96 61 79 356 333 297 292 314 310 279 333 352 343 338 337 345 340 336 340 338 335
30 33 61 338 329 58 35 54 39 4 53 19 359 4 328 15 311 338 13 91 121 100 94 81 79 83 26 347 344 348 351 343 11 335 330 332 317 332 332 335 340 342 341 339
45 87 68 38 27 32 66 30 28 35 43 10 349 334 318 303 287 300 18 75 58 92 91 81 81 51 334 350 351 5 359 350 352 351 343 342 338 345 335 334 339 340 335 333
47 49 51 19 345 42 36 1 6 356 1 13 334 322 322 294 15 9 358 66 62 102 52 68 63 10 357 344 356 2 3 357 353 346 347 336 341 347 348 339 345 338 337 341
60 46 32 51 24 40 22 336 315 321 322 331 321 298 339 347 359 357 67 53 52 70 64 74 36 354 349 2 359 345 344 341 342 338 336 331 336 342 341 342 343 342 343 341
58 35 42 58 87 26 350 339 328 340 318 323 318 322 357 8 39 21 50 55 61 40 47 43 359 350 354 347 345 339 333 332 327 329 324 321 324 332 333 340 337 344 343 343
63 42 23 4 16 351 352 343 331 344 327 307 16 18 50 39 24 46 29 55 49 17 349 350 336 4 353 348 337 337 332 334 332 327 321 319 327 332 323 324 338 344 343 338
52 41 26 26 13 322 330 323 323 326 320 29 23 45 29 12 50 46 24 32 355 345 337 339 340 353 353 339 334 335 339 345 345 347 337 326 328 318 320 342 345 342 341 325